Retour au catalogue

OBJECT D

ActifHEO
NORAD 100128·UNKNOWN·🇺🇸 United States

Lancé Jul 21, 2026 depuis Cape Canaveral Space Force Station

Loading…

Prochains Passages (prochaines 24 heures)

TLE

FraisSource: Space-Track

Époque: Sep 11, 2026, 09:44 UTC

1 A0128U 26167D   26254.40589491  .00000056  00000-0  25800-2 0  9990
2 A0128  24.9714  86.1873 7615913 203.1991  84.8025  1.73402317   926

Suivez OBJECT D en temps réel avec AllMySat

Download on the App Store